First and last observations above in comparison with prediction:
Residuals in seconds of arc (or zero decimals in degrees), reference and Delta-T
231017 T05   32+   52+    231019 858   41+   46+    MPO319051   +28.9 days
Orbital elements:
2014 XL8                                                 Earth MOID = 0.0841 AU
Epoch 2023 Sept. 13.0 TT = JDT 2460200.5                Veres                   
M   4.65986              (2000.0)            P               Q                  
n   0.22105659     Peri.   69.43332     +0.20194829     +0.88067240             
a   2.7089464      Node   221.09698     -0.94553130     +0.28937470             
e   0.7615895      Incl.   40.68583     +0.25531832     +0.37507121             
P   4.46           H   19.46          G   0.15           U   0                  
Residuals in seconds of arc
141212 F51  0.1-  0.1-    231017 L18  0.2+  0.3+    231017 J04  0.2-  0.2-
141212 F51  0.2+  0.0     231017 L18  0.0   0.6+    231017 J04  0.0   0.1-
141212 F51  0.1+  0.0     231017 A17  0.2+  0.4+    231018 G19  0.1+  0.2-
141213 W86  0.1-  0.0     231017 G02  0.1+  0.3-    231018 H21  0.1+  0.3+
141213 W86  0.2-  0.2+    231017 G02  0.3-  0.1+    231018 H21  0.0   0.3+
141213 W86  0.3-  0.2+    231017 900  0.3+  0.1-    231018 H21  0.1+  0.1+
141213 568  0.2-  0.0     231017 A17  0.0   0.3+    231018 G19  0.0   0.3-
141213 568  0.8-  0.1+    231017 G02  0.3+  0.1-    231018 H21  0.2+  0.2+
141213 568  0.6-  0.1+    231017 900  0.3-  0.0     231018 G19  0.1+  0.1-
141215 291  0.7-  0.1-    231017 A17  0.4+  0.1-    231018 H36  0.0   0.1+
141215 291  0.8+  0.7+    231017 G01  0.2-  0.1+    231018 H36  0.2-  0.1+
141215 291 (0.7-  0.9+)   231017 595  0.1-  0.3-    231018 H36  0.1-  0.5-
141218 J04  0.7+  0.1+    231017 G01  0.1-  0.2+    231018 L18  0.4+  0.5+
141218 J04  0.6+  0.0     231017 595  0.0   0.4-    231018 L18  0.0   0.7-
141218 J04  0.4+  0.3-    231017 595  0.3-  0.3+    231018 M45  0.1-  0.3-
141220 291  0.1+  0.1-    231017 G01  0.8-  0.9+    231018 L18  0.4-  0.7-
141220 291  0.2+  0.0     231017 K35  0.3-  0.0     231018 M45  0.2-  0.3-
141220 291  0.0   0.3+    231017 K35  0.0   0.1+    231018 M45  0.0   0.3-
141221 291  0.3-  0.1-    231017 K35  0.3-  0.3-    231018 L18  0.2-  0.1+
141221 291  0.1-  0.4-    231017 K74  0.0   0.1+    231018 L04  0.0   0.4-
141221 291  0.3+  0.2-    231017 K74  0.3-  0.1+    231018 L04  0.0   0.4-
141224 291  0.1+  0.2+    231017 K74  0.3-  0.2-    231018 L04  0.2-  0.2-
141224 291 (0.8-  1.0+)   231017 K74  0.1-  0.2+    231018 C40  0.1+  0.2-
141224 291  0.2-  0.3-    231017 K87  0.3-  0.2-    231018 C40  0.1+  0.4-
231017 T05  0.2+  0.4-    231017 K74  0.3-  0.1-    231018 C40  0.7+  0.5-
231017 T05  0.2+  0.0     231017 K87  0.4-  0.0     231018 C40  0.3-  0.1-
231017 T05  0.5-  0.1-    231017 G01  0.1-  0.0     231018 C40  0.0   0.1-
231017 T05  0.2+  0.1+    231017 G01  0.6-  0.6+    231018 C40  0.1-  0.1-
231017 900  1.2+  0.7+    231017 G01  0.2-  0.2+    231018 C40  0.3+  0.4+
231017 900  1.5+  0.6+    231017 L01  0.1-  0.1-    231018 C40  0.1+  0.1+
231017 900  1.4-  0.5-    231017 L01  0.1-  0.0     231018 C40  0.2-  0.0
231017 L04  0.1-  0.1+    231017 L01  0.2-  0.1-    231019 858  0.4-  0.1-
231017 L04  0.4-  0.1-    231017 L01  0.1-  0.1+    231019 858  0.3-  0.2-
231017 L18  0.1+  0.0     231017 L01  0.4+  0.4+    231019 858  0.3-  0.2-
231017 L04  0.2-  0.1-    231017 L01  0.1-  0.3+
Ephemeris:
2014 XL8                 a,e,i = 2.71, 0.76, 41                  q = 0.6458
Date    TT    R. A. (2000) Decl.     Delta      r    Elong.  Phase     V
2023 09 19    13 33 21.9 +49 57 09   0.5217  0.8115    53.5    95.4    21.0
...
2023 10 04    14 33 42.4 +70 02 43   0.3640  0.9823    76.6    82.3    20.1
...
2023 10 12    19 13 11.2 +81 03 57   0.3039  1.0796    97.3    66.5    19.4
...
2023 10 18    23 16 40.6 +68 49 52   0.2851  1.1532   116.7    50.5    18.9
2023 10 19    23 30 32.1 +65 49 24   0.2850  1.1655   120.1    47.7    18.9
2023 10 20    23 41 31.8 +62 44 43   0.2859  1.1778   123.4    44.9    18.8
...
2023 10 26    00 17 50.5 +44 37 48   0.3109  1.2512   141.0    30.0    18.7
...
2023 11 03    00 38 14.4 +25 58 15   0.3902  1.3481   151.6    20.5    19.1
...
2023 11 18    00 57 45.2 +08 02 19   0.6227  1.5252   141.3    23.9    20.5
A. U. Tomatic                (C) Copyright 2023 MPC           M.P.E.C. 2023-U93
    
    
More information about the Iaude
mailing list